Wetbulb
50.48 50.59 50.41 50.16 50.26 50.52 50.21 50.39 50.43 51.05 51.32 51.37 52.14 52.99 54.01 55.04 56.95 58.79 61.23 62.74 63.11 64.81 66.42 66.20 66.74 67.82 64.22 64.92 65.95 64.83 64.02 64.94 62.80 63.13 65.60 67.88 67.12 68.10 69.11 69.34 69.26 69.31 68.23
49.27 49.07 49.04 49.33 49.36 49.12 48.98 49.31 49.62 49.17 50.01 50.43 51.69 51.67 51.92 52.99 54.67 55.74 56.93 59.42 61.19 61.80 63.03 64.55 64.18 64.66 66.29 66.49 65.69 63.55 62.94 63.23 62.53 61.17 65.36 64.87 65.65 68.62 70.10 70.13 69.80 69.43 70.24
48.12 47.93 48.13 48.17 47.86 47.99 48.24 48.67 48.71 48.59 48.58 48.97 49.18 49.17 49.43 49.98 50.88 54.21 55.42 57.14 60.14 61.33 61.86 63.00 64.10 65.20 65.06 63.38 66.36 65.34 62.11 63.04 65.00 64.46 63.66 65.84 65.77 67.44 66.63 68.62 69.21 69.06 69.90
47.25 47.25 46.87 47.44 47.57 47.57 47.64 47.27 46.90 46.84 46.60 46.78 47.46 47.45 48.56 49.34 50.19 52.38 53.70 55.61 57.36 59.58 61.28 62.25 62.84 63.44 64.23 64.78 64.52 65.22 63.10 62.08 63.00 62.01 64.22 64.82 64.61 65.76 66.88 65.60 65.19 67.82 68.84
46.44 46.53 46.97 47.84 47.68 47.02 46.50 46.71 47.10 48.06 47.10 47.43 46.64 46.94 47.29 48.27 48.52 49.51 50.85 52.01 55.08 56.74 58.77 59.55 61.41 61.41 59.71 61.49 62.86 64.04 64.80 61.61 61.51 62.42 63.46 63.72 62.07 63.07 63.83 64.59 65.70 67.20 69.12
45.55 45.49 45.77 45.35 45.69 46.80 47.40 47.33 47.60 47.07 46.97 46.73 45.51 45.69 45.81 46.86 45.67 46.15 48.14 48.99 50.59 51.76 53.70 57.26 59.24 58.42 58.55 55.39 55.33 56.78 61.65 61.37 61.08 61.11 64.56 62.80 63.15 62.77 62.87 64.25 65.20 65.44 63.45
44.28 44.28 45.66 47.04 45.90 46.82 46.91 46.34 45.87 46.01 45.51 44.71 44.71 44.78 44.67 45.29 44.56 44.74 46.25 48.37 48.91 50.13 50.10 53.23 56.31 58.42 57.96 60.23 56.45 54.85 55.86 55.43 59.09 65.08 62.95 63.88 63.32 63.59 63.97 64.58 64.90 64.23 64.40
43.37 45.50 46.57 46.00 46.16 45.44 44.40 44.72 45.46 44.96 44.89 45.05 44.80 45.02 44.29 45.13 44.27 43.63 44.68 47.47 49.45 50.41 49.90 51.71 56.92 57.31 59.49 59.50 61.14 60.82 59.99 60.86 62.42 61.60 63.77 63.09 65.28 65.33 65.75 65.60 65.09 65.11 65.18
43.63 45.14 45.17 44.98 42.98 42.76 42.77 43.84 46.43 44.98 47.55 45.21 45.38 44.65 44.22 44.33 43.50 43.34 45.07 48.19 48.45 51.46 52.30 55.06 56.84 56.97 53.73 49.12 59.22 58.73 59.14 59.71 58.26 54.65 55.08 53.13 52.03 51.57 60.62 65.43 60.88 59.75 59.79
43.13 42.95 43.32 43.68 42.77 42.34 43.48 43.91 47.19 47.12 45.77 45.84 44.90 45.14 44.93 45.60 43.91 42.66 44.20 47.38 48.94 51.74 53.85 55.15 51.03 53.98 50.34 47.30 57.47 58.33 57.82 58.68 60.15 57.76 56.00 54.06 54.59 56.04 53.66 64.41 61.54 59.91 61.65
41.80 41.20 41.89 43.97 43.69 44.03 44.20 45.55 45.37 46.48 45.66 45.58 44.30 45.21 45.90 46.98 48.89 43.12 43.20 47.07 49.07 52.76 53.64 56.72 58.43 48.30 45.40 44.86 48.95 60.53 59.73 60.02 57.08 60.14 60.27 57.30 57.50 60.58 61.98 62.54 63.59 64.04 61.38
40.78 39.71 40.29 41.88 43.21 44.46 44.53 45.94 45.17 44.58 44.12 43.15 43.62 44.19 47.11 50.44 46.60 45.43 43.14 43.12 47.38 52.19 54.70 57.40 57.83 46.62 45.22 44.31 47.27 50.67 46.13 53.73 61.41 61.07 59.44 56.62 55.80 58.33 59.76 62.88 65.27 65.27 65.21
38.51 39.01 39.86 42.27 42.54 45.13 45.07 45.35 44.29 44.63 43.53 43.64 43.83 44.86 47.85 50.29 52.07 47.02 43.97 42.22 42.04 45.17 50.74 51.59 43.93 45.40 43.22 44.26 46.07 45.94 47.90 59.84 57.04 55.54 54.95 55.96 56.74 58.84 60.83 62.25 63.92 64.30 65.01
37.51 38.62 40.07 41.45 41.93 45.00 45.36 46.23 45.04 45.55 43.82 43.81 44.65 46.34 46.93 49.51 52.21 55.17 55.44 54.22 48.53 47.85 47.56 48.66 45.66 46.22 45.74 50.06 48.46 51.63 57.36 57.66 56.16 55.76 55.57 56.93 59.69 59.99 59.45 60.56 59.96 60.09 60.36
36.93 38.46 39.60 40.86 41.42 44.00 46.15 46.27 47.19 47.06 45.72 44.39 45.10 46.52 46.36 47.99 51.65 45.20 44.96 49.03 50.96 50.54 49.02 50.59 52.42 52.90 52.77 54.11 55.22 54.80 54.51 55.94 56.40 55.99 55.77 56.43 57.41 58.57 59.87 61.30 59.80 60.30 58.66
36.00 37.50 38.33 39.19 40.73 43.11 45.74 46.58 44.16 41.41 40.26 39.12 38.64 40.23 44.09 42.89 41.48 40.57 39.71 38.83 40.32 41.77 51.19 52.43 52.52 54.22 52.22 51.78 52.52 53.13 55.45 54.41 56.00 56.23 57.17 57.67 57.85 58.95 59.59 60.63 61.53 61.67 59.77
34.91 36.27 36.23 37.56 39.96 41.90 43.26 45.05 44.53 48.23 44.47 42.37 41.27 41.27 40.67 38.99 39.68 39.12 38.08 38.31 39.96 47.88 53.04 52.70 52.83 53.58 52.89 51.39 53.20 54.32 54.56 55.86 58.33 58.27 58.97 59.22 60.62 62.15 60.19 60.42 61.16 61.86 60.34
34.34 35.03 34.78 36.55 37.74 38.43 40.74 42.37 45.51 47.64 46.97 48.17 44.64 41.87 41.42 41.73 40.85 39.57 40.51 43.86 52.35 51.56 55.02 53.85 52.85 52.71 53.37 54.79 54.53 55.30 55.95 57.00 57.95 58.70 58.88 59.34 60.25 60.82 61.23 60.28 61.07 61.00 59.69
32.65 33.39 34.03 34.59 35.65 36.18 37.53 39.13 40.91 42.04 44.66 47.54 48.81 43.85 43.63 42.76 42.90 44.08 46.22 53.76 51.68 54.98 55.32 54.66 54.68 54.19 55.44 57.15 57.09 57.13 56.92 56.86 57.26 58.67 59.06 59.86 61.28 61.53 61.85 62.79 62.31 52.86 55.30
32.45 31.95 32.19 32.71 33.38 33.21 34.70 34.59 36.30 37.64 38.86 40.42 44.22 41.90 42.73 45.59 46.34 48.13 52.45 53.11 54.59 54.78 54.58 53.72 54.19 53.87 56.80 56.65 55.95 55.97 55.59 55.79 57.12 58.15 59.23 60.36 61.43 62.23 61.31 61.31 61.81 59.96 60.92
32.58 33.37 30.88 30.85 30.79 31.78 31.37 32.00 32.47 33.90 35.35 37.46 38.78 39.90 35.00 43.87 44.96 46.04 47.63 50.62 53.52 55.32 55.94 56.39 56.17 56.15 56.69 57.96 56.81 56.58 56.48 56.77 57.45 57.88 58.49 59.63 61.05 61.24 62.23 62.15 61.60 61.92 59.57
31.01 31.24 33.08 31.35 29.60 29.45 29.97 30.58 30.85 30.64 32.30 33.30 34.99 37.46 34.82 40.16 41.34 42.75 46.19 47.12 49.94 51.10 54.79 56.10 56.94 57.54 57.80 58.60 57.65 57.32 57.21 56.74 57.97 58.63 59.30 60.61 61.67 61.67 62.07 61.99 61.75 61.83 59.98
30.37 30.02 30.68 30.96 31.14 29.92 28.63 29.43 29.09 29.26 29.60 30.36 31.86 33.13 34.92 36.53 38.02 39.55 40.06 42.51 46.75 48.22 50.26 52.48 54.45 56.34 58.46 58.55 59.21 58.17 57.32 57.26 57.91 59.11 58.74 58.46 58.22 58.31 58.87 59.88 61.53 61.59 61.20
29.18 29.61 28.85 29.16 28.78 30.22 30.18 30.21 29.18 28.53 28.67 28.72 29.64 30.45 31.45 33.01 34.62 36.10 37.04 37.65 39.36 41.77 47.48 51.90 51.24 52.71 54.91 57.85 59.40 60.29 59.68 59.23 58.97 59.28 59.30 58.84 57.89 55.96 58.24 57.56 57.73 59.68 61.37
28.24 27.85 27.97 27.43 28.04 28.16 28.99 29.63 29.62 29.70 29.61 28.85 28.28 28.74 29.60 30.93 31.97 33.15 34.62 35.18 35.88 37.71 42.10 45.73 49.15 51.95 53.31 53.89 56.25 56.92 49.31 39.07 55.03 48.26 59.29 59.53 58.71 58.32 57.60 58.31 57.80 57.60 60.45
27.76 27.59 27.33 27.46 26.82 26.99 26.95 27.41 27.80 28.69 28.75 29.83 29.88 28.76 28.63 29.16 29.34 30.33 32.19 32.92 34.01 35.63 37.69 40.24 42.02 44.41 52.30 53.26 54.51 44.86 37.27 35.54 46.46 39.11 57.99 58.71 57.64 57.39 57.50 56.90 56.50 56.83 57.84
MSLP
1012.62 1012.50 1012.22 1011.93 1011.67 1011.36 1010.98 1010.51 1010.10 1009.75 1009.46 1008.88 1008.29 1007.75 1007.26 1006.79 1006.40 1005.99 1005.64 1005.31 1004.99 1004.62 1004.49 1004.37 1004.42 1004.74 1004.75 1004.99 1005.60 1006.16 1006.21 1006.02 1005.22 1005.18 1005.15 1005.44 1005.37 1005.68 1005.80 1005.11 1006.70 1007.58 1007.30
1012.50 1012.28 1011.94 1011.70 1011.42 1011.05 1010.71 1010.40 1010.02 1009.51 1009.05 1008.47 1007.88 1007.36 1006.88 1006.36 1005.87 1005.33 1004.78 1004.32 1003.88 1003.72 1003.60 1003.51 1003.36 1003.53 1003.72 1003.94 1004.51 1004.76 1005.20 1005.16 1005.18 1004.87 1004.76 1005.06 1005.26 1005.54 1005.77 1004.78 1005.80 1006.64 1006.56
1012.27 1011.92 1011.61 1011.35 1011.15 1010.74 1010.32 1009.93 1009.54 1009.11 1008.61 1008.01 1007.42 1006.88 1006.39 1005.90 1005.29 1004.59 1003.92 1003.41 1002.94 1002.61 1002.48 1002.41 1002.22 1002.30 1002.46 1002.58 1003.11 1003.50 1003.90 1004.29 1004.35 1004.34 1004.10 1004.33 1004.62 1005.09 1005.30 1005.45 1004.51 1005.69 1006.22
1012.06 1011.74 1011.29 1010.87 1010.49 1010.08 1009.68 1009.21 1008.79 1008.34 1007.91 1007.42 1006.84 1006.25 1005.75 1005.19 1004.52 1003.79 1003.16 1002.67 1002.29 1001.88 1001.52 1001.38 1001.33 1001.18 1001.40 1001.57 1001.94 1002.28 1002.75 1003.20 1003.38 1003.43 1003.50 1003.43 1003.74 1003.97 1003.78 1004.14 1005.03 1004.99 1005.67
1011.96 1011.55 1011.11 1010.61 1010.20 1009.74 1009.18 1008.54 1007.95 1007.32 1006.84 1006.47 1005.99 1005.49 1005.01 1004.45 1003.88 1003.40 1003.01 1002.43 1001.79 1001.32 1000.68 1000.42 1000.26 1000.35 1000.48 1000.69 1000.82 1001.14 1001.56 1001.96 1002.34 1002.08 1002.05 1002.29 1002.63 1002.78 1002.68 1003.44 1003.44 1003.86 1005.38
1011.75 1011.23 1010.64 1010.13 1009.45 1008.80 1008.07 1007.35 1006.75 1006.29 1005.88 1005.46 1005.04 1004.59 1004.17 1003.72 1003.18 1003.08 1002.80 1002.05 1001.54 1001.01 1000.34 999.36 999.23 999.59 999.77 1000.18 1000.15 1000.47 1000.57 1000.94 1000.88 1000.95 1000.69 1000.90 1001.49 1001.86 1002.52 1002.81 1002.95 1003.25 1004.16
1011.52 1010.84 1010.12 1009.30 1008.73 1007.98 1007.37 1006.77 1006.12 1005.56 1005.01 1004.49 1004.08 1003.83 1003.29 1002.87 1002.52 1002.19 1002.02 1001.60 1000.89 1000.38 1000.01 999.74 998.64 998.37 998.63 998.57 998.97 999.41 999.61 999.99 999.95 999.82 999.86 999.66 1000.53 1001.14 1001.92 1002.67 1002.55 1002.73 1002.92
1011.13 1010.22 1009.45 1008.83 1008.13 1007.61 1007.12 1006.46 1005.67 1004.96 1004.19 1003.71 1003.19 1002.97 1002.50 1001.94 1001.58 1001.30 1001.16 1000.75 999.95 999.25 999.11 998.77 998.41 997.97 997.67 998.02 998.06 998.03 998.38 998.62 999.11 999.72 999.44 999.67 999.89 1000.57 1001.36 1001.52 1001.64 1002.53 1002.23
1010.59 1009.80 1009.09 1008.57 1008.14 1007.48 1006.69 1005.85 1004.98 1004.22 1003.39 1002.92 1002.53 1002.10 1001.61 1000.96 1000.69 1000.28 1000.10 999.46 998.69 997.80 997.43 997.17 996.99 996.85 996.85 997.17 997.35 997.14 997.22 997.33 997.97 998.51 998.98 999.23 999.59 1000.12 1000.72 1001.41 1001.85 1002.35 1002.64
1010.35 1009.70 1008.91 1008.54 1007.78 1006.96 1006.06 1005.22 1004.32 1003.61 1002.90 1002.31 1001.72 1001.13 1000.55 999.84 999.43 999.29 999.09 998.57 997.34 996.30 995.67 995.51 995.82 996.14 995.98 996.35 996.35 996.11 996.15 996.23 996.95 997.87 998.78 999.24 999.24 999.80 1000.19 1000.63 1001.10 1001.40 1001.73
1010.28 1009.39 1008.84 1007.95 1007.18 1006.30 1005.34 1004.47 1003.70 1003.00 1002.38 1001.71 1001.09 1000.25 999.49 998.64 997.90 998.01 997.72 997.40 996.60 995.45 994.65 994.46 994.61 994.71 994.85 994.99 995.00 994.92 995.01 995.66 996.18 996.85 997.54 998.33 999.01 999.61 1000.06 1000.45 1000.33 1000.80 1001.30
1010.03 1009.23 1008.38 1007.56 1006.64 1005.62 1004.67 1003.62 1003.05 1002.58 1001.92 1001.21 1000.44 999.41 998.44 997.49 997.15 996.71 996.21 995.91 995.39 994.95 994.03 993.55 993.29 993.37 993.31 993.69 994.11 994.24 994.55 995.33 995.80 996.25 996.77 997.65 998.39 999.06 999.77 999.95 1000.39 1000.72 1001.08
1009.82 1009.00 1008.11 1007.15 1006.14 1005.11 1004.00 1002.93 1002.49 1002.04 1001.49 1000.70 1000.01 999.02 997.82 996.97 996.29 995.58 995.10 994.77 994.33 994.23 993.46 992.85 992.33 991.80 992.15 992.71 993.40 993.97 994.39 994.99 995.61 995.95 996.68 997.33 998.00 998.56 999.09 1000.22 1000.79 1001.25 1001.60
1009.66 1008.74 1007.85 1006.84 1005.81 1004.63 1003.51 1002.63 1002.10 1001.44 1001.10 1000.54 999.77 998.44 997.38 996.28 995.56 994.77 994.32 994.12 993.75 993.01 992.83 992.36 991.80 991.47 991.98 992.18 993.18 993.81 994.48 994.66 995.10 995.82 996.66 997.40 998.13 999.10 999.61 999.98 1000.81 1001.33 1001.82
1009.60 1008.69 1007.76 1006.83 1005.80 1004.46 1003.18 1002.33 1001.67 1001.18 1001.02 1000.44 999.64 998.48 997.65 996.37 995.21 995.02 994.63 994.42 993.64 992.52 992.14 992.00 991.63 991.32 991.60 992.20 993.06 993.74 994.24 994.91 995.31 996.13 996.73 997.42 998.07 998.91 999.69 1000.35 1000.78 1001.28 1001.68
1009.60 1008.78 1007.99 1007.08 1005.94 1004.60 1003.23 1001.98 1001.11 1000.81 1000.25 1000.03 999.74 999.14 997.69 996.59 995.45 994.59 994.13 994.02 993.20 992.91 992.42 992.37 991.83 991.65 992.30 992.70 993.77 994.59 995.05 995.09 995.64 996.07 996.75 997.31 997.92 998.76 999.50 1000.07 1000.56 1000.94 1001.60
1010.12 1009.27 1008.36 1007.46 1006.37 1005.13 1004.00 1002.75 1001.51 1000.12 999.53 999.05 998.72 998.13 997.45 996.35 994.98 993.83 993.43 993.71 993.61 993.17 993.01 992.98 993.11 993.20 992.88 993.47 993.98 994.04 994.32 994.95 995.52 996.07 996.65 997.27 997.88 998.52 999.13 999.66 1000.03 1000.45 1001.49
1010.55 1009.79 1008.89 1007.98 1007.17 1006.13 1004.96 1003.88 1002.53 1001.22 1000.04 999.09 998.60 998.46 997.34 996.05 994.85 994.10 994.18 994.13 994.29 994.41 993.71 993.27 993.50 993.71 993.61 993.78 994.09 994.37 994.94 995.39 995.79 996.30 996.84 997.32 997.88 998.29 998.76 999.32 1000.00 1000.49 1001.20
1010.90 1010.21 1009.37 1008.56 1007.88 1007.01 1006.03 1005.02 1003.97 1002.90 1001.80 1000.41 999.14 998.82 998.26 996.96 995.69 995.21 994.83 994.94 994.90 994.49 993.95 993.83 994.01 994.12 994.28 994.40 994.78 995.05 995.39 995.74 996.04 996.43 997.03 997.49 997.89 998.28 998.64 999.17 999.91 1000.72 1001.33
1011.39 1010.94 1010.14 1009.28 1008.47 1007.64 1006.94 1006.16 1005.18 1004.17 1003.27 1002.28 1001.46 1001.13 999.98 998.66 997.88 997.35 996.61 995.98 995.43 995.13 994.80 994.84 994.79 994.85 994.68 994.90 995.15 995.45 995.80 996.04 996.36 996.76 997.28 997.80 998.31 998.60 999.02 999.56 1000.27 1001.05 1001.51
1012.04 1011.21 1010.92 1010.16 1009.42 1008.67 1008.11 1007.53 1006.81 1005.75 1004.65 1003.87 1003.01 1002.59 1002.02 1000.84 1000.17 999.26 998.29 997.74 996.94 996.20 995.82 995.64 995.49 995.57 995.48 995.48 995.55 995.72 996.02 996.36 996.70 997.15 997.55 998.00 998.52 998.89 999.27 999.74 1000.25 1000.86 1001.71
1012.82 1012.17 1011.37 1010.79 1010.42 1009.66 1009.06 1008.47 1007.91 1007.20 1006.20 1005.25 1004.57 1003.62 1002.90 1002.42 1001.96 1001.09 1000.09 999.27 998.60 998.18 997.37 996.96 996.27 996.17 996.32 996.24 996.11 996.28 996.51 996.70 997.01 997.45 997.89 998.32 998.70 999.12 999.44 999.77 1000.10 1000.67 1001.72
1013.54 1012.98 1012.24 1011.66 1011.08 1010.43 1009.85 1009.34 1008.74 1008.23 1007.60 1006.70 1005.85 1005.19 1004.28 1003.33 1003.13 1002.66 1001.60 1001.00 1000.09 999.60 999.04 998.45 997.86 997.30 997.17 997.25 997.21 996.92 996.86 997.15 997.55 997.92 998.27 998.62 998.90 999.23 999.50 999.96 1000.10 1000.65 1001.31
1014.45 1013.81 1013.21 1012.55 1012.00 1011.12 1010.57 1009.85 1009.49 1009.07 1008.58 1008.05 1007.30 1006.49 1005.88 1005.14 1003.85 1002.91 1002.99 1002.67 1002.18 1001.39 1000.75 999.52 999.07 998.59 998.33 997.95 997.88 997.87 997.89 997.97 998.27 998.46 998.63 998.83 999.24 999.51 999.83 1000.05 1000.36 1000.69 1001.06
1015.32 1014.74 1014.07 1013.47 1012.68 1012.06 1011.51 1010.82 1010.27 1009.57 1009.00 1008.67 1008.33 1007.73 1006.95 1006.37 1005.81 1005.18 1004.59 1003.90 1003.27 1002.35 1001.88 1001.54 1000.31 999.40 999.15 998.99 998.60 998.52 998.39 998.85 998.65 998.74 998.97 999.18 999.34 999.52 999.84 1000.14 1000.32 1000.53 1000.83
1016.02 1015.42 1014.88 1014.35 1013.74 1013.09 1012.52 1011.94 1011.34 1010.71 1009.86 1009.07 1008.60 1008.42 1008.14 1007.47 1006.78 1006.30 1005.82 1005.25 1004.51 1003.74 1003.10 1002.21 1001.63 1001.10 1000.24 999.46 999.25 999.32 999.32 999.44 999.49 999.26 998.97 999.10 999.36 999.45 999.80 1000.08 1000.24 1000.19 1000.38
Wind_Speed
9 10 11 11 12 12 12 14 14 15 15 16 17 17 17 17 16 15 16 18 18 16 16 16 17 15 13 12 11 10 11 13 16 13 7 6 5 8 6 9 8 10 8
11 11 11 12 13 13 13 14 14 15 15 16 16 17 17 17 17 18 18 17 19 19 18 18 18 13 16 14 13 14 12 13 13 16 13 8 9 8 9 8 9 8 8
12 12 13 13 13 14 15 15 16 16 16 16 16 17 18 18 19 19 19 18 18 19 18 18 17 17 16 13 14 13 12 12 13 12 13 11 11 8 5 7 9 9 8
12 13 14 15 15 15 16 17 16 16 17 18 18 17 17 18 19 18 19 19 18 19 18 18 18 17 17 15 15 16 13 13 13 12 13 12 10 8 9 8 7 8 8
13 14 14 14 15 16 15 16 16 17 15 16 16 16 17 18 14 15 16 20 18 19 18 18 18 19 18 18 13 15 16 14 13 13 14 13 8 8 13 9 9 7 9
14 15 15 15 15 16 16 17 18 19 18 18 16 17 18 14 19 18 20 20 19 18 15 17 17 16 16 17 19 22 17 16 16 14 15 15 14 11 8 9 10 12 11
14 15 16 15 16 17 17 18 18 18 17 17 15 15 16 16 21 19 18 17 18 17 17 18 16 14 15 18 18 23 24 22 22 18 16 15 13 11 10 13 13 12 11
14 15 15 16 17 17 16 17 17 15 16 15 13 14 15 14 21 17 20 18 19 19 18 18 20 19 18 19 18 16 20 21 22 14 15 13 12 11 14 14 13 7 8
14 15 15 16 17 16 16 17 16 14 13 10 12 14 14 15 18 19 17 16 16 20 17 21 20 19 20 17 17 17 16 18 18 18 18 13 12 11 11 8 7 9 6
15 16 16 17 15 16 16 16 13 13 11 9 12 13 17 16 17 16 15 11 14 12 14 17 18 21 20 17 18 17 16 16 17 10 7 9 13 13 19 15 10 10 8
15 15 17 17 16 16 15 13 12 13 11 11 12 13 14 15 15 14 18 12 11 11 9 12 13 15 19 19 22 17 18 16 14 14 11 7 8 12 12 8 12 10 10
15 16 16 16 13 13 15 13 11 11 11 11 11 12 10 10 11 15 19 17 16 11 13 11 12 12 16 21 18 13 11 13 10 11 10 8 8 9 7 8 10 9 5
15 15 15 17 14 15 14 12 8 8 7 8 8 9 9 9 9 15 19 17 16 10 9 9 13 15 14 17 17 16 15 9 8 8 8 7 7 6 9 9 9 9 9
14 15 14 13 14 15 11 8 7 7 7 7 8 10 11 11 9 8 8 7 6 9 8 3 2 6 10 10 11 12 6 7 8 8 8 7 9 9 9 8 8 8 6
13 12 12 10 12 12 11 9 8 8 7 8 10 11 12 12 11 9 10 8 8 6 3 0 4 8 10 10 9 8 6 6 6 8 8 8 9 8 7 8 8 9 5
12 11 11 10 10 10 9 10 6 11 14 14 15 11 10 14 19 18 14 8 10 6 3 7 13 6 8 9 9 9 11 11 10 9 9 10 10 8 8 8 8 9 9
12 12 10 11 10 11 11 9 10 11 10 6 12 14 15 14 17 16 7 4 3 9 2 4 8 9 6 6 6 9 10 9 11 11 11 11 11 10 10 8 8 9 9
12 17 10 9 10 10 10 10 10 11 12 12 10 16 23 26 19 12 10 4 7 5 3 6 6 5 8 8 6 8 9 9 9 9 9 8 8 8 8 8 10 9 9
11 11 11 9 9 11 10 11 11 11 12 12 11 15 21 24 22 17 14 8 4 5 4 5 5 6 7 8 8 8 9 8 9 8 7 8 8 8 8 9 8 9 10
10 19 16 10 10 11 10 11 11 11 11 11 12 13 13 14 13 12 9 8 7 6 5 5 5 5 4 8 8 8 8 8 8 7 7 7 7 7 8 8 7 7 6
11 10 16 10 10 10 10 10 10 10 11 11 12 12 18 9 10 10 11 11 10 10 8 4 4 4 4 4 7 8 8 7 8 8 7 7 7 7 7 7 7 8 6
11 11 12 10 10 11 11 10 10 11 11 12 12 13 16 9 9 10 9 10 12 10 8 8 7 6 4 1 5 7 7 7 7 7 8 7 7 7 7 7 7 6 7
11 12 12 11 12 13 10 11 11 11 11 12 12 12 13 12 10 10 11 11 11 10 9 10 7 6 5 4 1 4 5 6 6 7 8 8 8 8 7 5 5 5 6
12 13 13 12 12 12 13 12 10 14 12 11 11 11 11 12 13 14 11 10 9 9 10 10 6 8 7 5 3 2 2 4 5 6 8 7 7 5 5 5 3 5 6
11 12 12 12 13 12 13 13 13 14 12 11 10 11 11 12 12 12 13 11 11 11 13 12 8 11 9 10 7 6 4 1 5 4 6 6 7 6 3 2 2 3 6
11 12 11 11 12 12 12 13 13 13 13 13 11 10 10 11 11 12 11 13 11 8 11 9 11 16 14 10 9 8 3 2 6 6 7 7 6 4 4 5 5 5 7
Wind_Direction
325 321 312 309 308 304 301 300 299 297 289 286 284 279 276 271 265 260 257 252 247 241 235 231 228 229 232 229 223 229 234 236 245 252 251 218 231 250 217 170 210 217 186
323 317 314 311 310 304 300 298 299 297 296 290 286 286 285 282 276 266 261 255 244 239 238 234 231 227 230 227 224 222 232 233 240 238 233 226 226 225 236 187 191 201 204
323 318 313 310 307 303 302 301 298 296 294 294 292 288 286 283 276 269 262 260 258 245 241 238 233 229 229 229 225 230 226 234 229 233 238 229 215 189 191 207 175 186 202
319 314 312 311 307 302 301 300 294 291 291 289 287 289 284 278 280 274 270 261 258 254 242 238 238 234 232 231 231 227 222 226 231 227 225 221 209 190 187 178 183 185 196
314 309 304 306 305 299 290 288 289 286 281 279 282 284 288 281 272 266 272 271 274 265 260 249 239 238 238 240 238 232 229 226 233 221 217 212 198 180 192 191 189 163 194
310 305 306 298 296 299 298 298 301 297 291 284 277 277 285 286 282 267 264 265 265 273 273 268 252 244 246 242 232 240 231 224 219 217 207 205 206 200 198 190 196 179 178
306 302 297 306 305 302 310 306 304 298 291 281 272 273 276 280 278 257 263 271 271 264 259 269 267 256 247 254 237 226 220 213 216 208 216 213 204 194 186 199 187 192 198
298 300 311 308 312 314 305 298 295 295 286 281 270 269 272 276 273 262 261 266 268 258 253 250 255 258 259 257 253 234 224 219 223 226 222 215 212 198 203 195 183 192 87
300 306 314 319 308 302 298 297 297 301 300 283 275 273 274 275 277 266 262 276 266 264 252 242 248 261 260 241 238 232 218 222 219 216 222 229 216 200 181 166 152 166 143
309 311 318 308 302 297 294 294 299 301 299 290 286 278 273 276 267 263 269 275 268 263 241 237 258 256 252 227 225 222 219 217 210 191 182 172 176 172 168 189 164 174 163
310 316 309 309 304 295 291 290 297 300 298 296 294 287 275 272 280 265 264 271 270 271 246 242 243 229 234 213 212 216 215 209 187 190 184 160 161 169 182 188 165 182 174
318 312 309 307 303 300 295 293 297 298 300 299 294 290 294 288 254 265 260 247 255 258 264 261 251 233 222 213 202 215 159 158 173 170 161 155 150 165 155 154 160 168 151
319 310 308 311 308 306 304 305 304 298 297 300 302 306 310 305 293 249 251 254 245 242 256 264 285 276 206 200 184 164 152 159 157 146 149 148 148 132 115 146 136 127 109
315 313 312 317 312 313 312 310 307 309 297 298 307 312 316 306 305 322 309 295 268 244 217 253 188 181 193 155 136 142 145 142 142 138 141 121 125 147 154 145 140 137 117
320 319 320 320 316 315 315 324 316 299 275 287 301 315 310 307 310 307 295 312 317 280 93 171 182 121 124 124 125 102 104 107 136 130 131 136 135 152 149 155 153 150 126
331 331 328 325 320 320 326 334 314 260 270 267 270 265 305 280 280 286 300 313 267 188 59 108 82 50 94 116 125 151 155 160 143 131 144 156 156 156 156 159 157 157 141
340 335 331 335 334 334 336 341 339 344 305 319 5 341 335 293 298 299 269 154 160 64 51 98 117 131 113 97 126 128 129 130 138 146 152 155 159 153 148 150 145 149 144
344 348 341 341 344 341 341 340 340 352 350 348 4 347 351 350 350 30 78 128 78 102 173 129 113 114 121 124 105 111 115 125 128 134 138 142 145 150 152 151 156 150 133
353 353 347 349 353 354 350 350 353 355 348 348 357 1 358 351 5 18 30 50 47 77 108 105 114 94 114 121 120 119 123 123 126 125 132 137 143 150 158 152 147 139 140
0 1 360 355 354 4 2 359 355 356 356 359 360 5 351 6 9 3 19 17 49 49 61 58 73 66 101 117 117 116 114 113 115 117 122 135 138 137 133 134 133 135 157
353 3 6 2 1 3 2 5 360 355 355 358 358 9 349 6 2 351 20 13 31 34 43 60 110 78 78 127 128 116 110 108 112 119 122 122 137 139 134 130 135 137 139
2 2 3 12 3 3 2 1 7 3 358 357 356 358 354 20 8 358 2 15 11 11 21 21 30 44 41 94 158 143 126 113 112 113 113 115 123 130 132 128 127 122 124
10 6 8 9 8 7 4 4 4 8 4 358 357 2 1 357 7 9 7 357 360 359 355 6 14 6 32 31 77 163 147 132 127 124 120 115 112 111 110 118 137 148 144
14 9 10 8 14 7 9 7 5 3 4 6 358 358 0 358 352 0 7 357 356 352 344 349 350 10 351 353 359 262 181 149 150 156 149 139 122 128 112 111 132 178 179
12 12 13 9 9 10 6 7 4 2 0 4 4 359 355 357 0 358 355 358 348 349 345 330 342 348 350 347 330 310 19 307 216 145 170 172 168 156 157 186 186 205 195
15 14 12 10 10 8 6 4 3 2 356 356 358 359 357 354 350 350 351 349 344 338 335 340 340 339 337 335 346 358 23 273 255 239 183 175 181 194 216 244 236 236 209